sat.trackr.live / text

‹ back to catalog

STARLINK-34013

NORAD 63871 · 2025-094H

PAYLOAD ACTIVE UNKNOWN

§ Identity

Operator
Country
US
Launch date
2025-05-10
Launch site
AFWTR
Launch vehicle
Mass (kg)
RCS (m²)

Purposes: comms

External: N2YO · Heavens-Above · Gunter

§ Orbital elements

Epoch: 2026-05-25T02:46:51.320064Z

Period
96.11 min
Inclination
70.0015°
Eccentricity
0.0002831
Mean motion
14.98337104 rev/d
Perigee alt
570.1 km
Apogee alt
574.0 km
Semi-major
6,950.2 km
B*
2.4392e-4
RAAN
41.6653°
Arg perigee
269.0599°
Mean anomaly
91.0236°
Rev number
5,865

§ Raw data

STARLINK-340131 63871U 25094H   26145.11587176  .00002819  00000+0  24392-3 0  99912 63871  70.0015  41.6653 0002831 269.0599  91.0236 14.98337104 58654

JSON: /api/v1/satellites/63871 · /tle

For live sub-satellite position, see the globe view (requires WebGL).

§ Visibility from observer

Set your observer location to see the next 7 days of passes ≥ 10°. The values pass through the URL so the page stays shareable.

No JS? Fill the form by hand. The geolocation button needs JavaScript.